Flag for Canada Weather past 2 weeks in Abbotsford, British Columbia, Canada

Now
75 °F

Scattered clouds.


Feels Like: 78 °F
Forecast: 58 / 68 °F
Wind: 9 mph from Southwest

Location: Abbotsford

Current Time: Sep 21, 2014 at 6:19:02 PM

Latest Report: Sep 21, 2014 at 6:00 PM


Visibility: 30 mi

Pressure: 29.81 "Hg

Humidity: 57%

Dew point: 59 °F

Location of AbbotsfordLocation

Historic Weather in Abbotsford — Graph

°F

Abbotsford temperature yesterday

Maximum temperature yesterday: 77 °F (at 4:00 PM)
Minimum temperature yesterday: 55 °F (at 2:00 AM)
Average temperature yesterday: 65 °F

Past Weeks' High & Low Weather Summary

 TemperatureHumidityPressure
High86 °F (Sep 6, 5:00 PM)100% (Sep 7, 7:00 AM)30.35 "Hg (Sep 7, 7:00 AM)
Low46 °F (Sep 12, 5:00 AM)20% (Sep 10, 1:00 PM)29.70 "Hg (Sep 17, 7:00 PM)
Average64 °F68%29.96 "Hg
* Reported Sep 6 5:00 PM — Sep 21 5:00 PM, Abbotsford, Weather by CustomWeather, © 2014

Note: Actual official high and low records may vary slightly from our data, if they occured in-between our weather recording intervals... More about our weather records

Advertising

Abbotsford weather history for previous 24 hours

 ConditionsComfort  
Time TempWeatherWind HumidityBarometerVisibility
5:00 PM
Sep 21
79 °FSunny.13 mph51%29.81 "Hg30 mi
4:00 PM84 °FSunny.5 mph35%29.81 "Hg30 mi
3:00 PM84 °FSunny.No wind33%29.82 "Hg30 mi
2:00 PM82 °FPassing clouds.2 mph37%29.84 "Hg30 mi
1:00 PM81 °FPassing clouds.2 mph39%29.84 "Hg30 mi
12:00 PM77 °FScattered clouds.3 mph47%29.85 "Hg30 mi
11:00 AM73 °FScattered clouds.6 mph50%29.86 "Hg30 mi
10:00 AM70 °FPassing clouds.5 mph57%29.88 "Hg30 mi
9:00 AM64 °FPassing clouds.5 mph68%29.88 "Hg30 mi
8:00 AM61 °FPassing clouds.6 mph72%29.88 "Hg30 mi
7:00 AM57 °FPassing clouds.7 mph82%29.87 "Hg30 mi
6:00 AM57 °FPassing clouds.6 mph82%29.86 "Hg30 mi
5:00 AM54 °FClear.8 mph100%29.86 "Hg15 mi
4:00 AM54 °FClear.2 mph100%29.88 "Hg15 mi
3:00 AM55 °FClear.No wind100%29.88 "Hg15 mi
2:00 AM55 °FClear.3 mph100%29.89 "Hg15 mi
1:00 AM57 °FClear.5 mph94%29.90 "Hg15 mi
12:00 AM57 °FClear.No wind94%29.91 "Hg15 mi
11:00 PM
Sep 20
59 °FClear.No wind94%29.92 "Hg15 mi
10:00 PM61 °FClear.3 mph88%29.92 "Hg15 mi
9:00 PM63 °FClear.2 mph88%29.92 "Hg15 mi
8:00 PM66 °FSunny.No wind73%29.93 "Hg20 mi
7:00 PM72 °FSunny.3 mph61%29.93 "Hg30 mi
6:00 PM75 °FSunny.6 mph57%29.95 "Hg30 mi
Weather by CustomWeather, © 2014

See weather overviewHow to use our weather pages